EW6754 Weather Reports


Display with metric or nautical units.
time (UTC)temp
F
wind
direction
speed
MPH
gust
MPH
rain 1hr
in
rain 24hr
in
rain mn
in
humidity
%
barometer
mb
20260901063028 73 46 0.0 0.0 0.22 0.49 0.47 42 1015.5
20260901061528 72 209 0.0 0.0 0.22 0.47 0.45 41 1015.8
20260901060023 73 84 0.0 0.0 0.14 0.37 0.35 41 1016.0
20260901054521 73 172 0.0 0.0 0.13 0.34 0.32 40 1016.2
20260901053016 73 186 0.0 0.0 0.05 0.26 0.24 40 1016.2
20260901051514 74 172 0.0 8.0 0.05 0.25 0.23 39 1016.3
20260901050013 74 221 0.0 4.0 0.21 0.23 0.21 39 1016.2
20260901044522 75 164 0.0 11.0 0.20 0.21 0.19 38 1016.1
20260901043007 76 186 0.0 1.0 0.20 0.21 0.19 38 1015.9
20260901041518 76 241 0.0 0.0 0.19 0.20 0.18 38 1015.8
20260901040004 76 166 0.0 0.0 0.02 0.03 0.02 38 1016.0
20260901034502 76 236 0.0 0.0 0.01 0.02 0.01 41 1016.2
20260901033001 77 200 0.0 5.0 0.01 0.02 0.01 48 1016.2
20260901031601 80 177 0.0 0.0 0.01 0.02 0.01 75 1016.1
20260901030105 80 201 0.0 0.0 0.00 0.02 0.00 77 1016.1
20260901030002 80 198 0.0 0.0 0.00 0.02 0.00 77 1016.2
20260901024559 80 120 0.0 0.0 0.00 0.02 0.00 77 1015.9
20260901024501 80 120 0.0 0.0 0.00 0.02 0.00 77 1016.0
20260901023057 80 154 0.0 0.0 0.00 0.02 0.00 77 1016.0
20260901021603 81 112 0.0 0.0 0.00 0.02 0.00 76 1015.9
20260901020057 81 112 0.0 0.0 0.00 0.02 0.00 77 1015.8
20260901014556 81 112 0.0 0.0 0.00 0.02 0.00 77 1015.8
20260901013112 81 112 0.0 0.0 0.00 0.02 0.00 78 1016.0
20260901011612 81 138 0.0 0.0 0.00 0.02 0.00 78 1015.7
20260901010109 81 117 0.0 0.0 0.00 0.02 0.00 78 1016.0
20260901004552 81 240 0.0 0.0 0.00 0.02 0.00 78 1015.6
20260901003051 80 162 0.0 0.0 0.00 0.02 0.00 77 1015.4
20260901001550 80 167 0.0 0.0 0.00 0.02 0.00 77 1015.2
20260901000049 80 170 0.0 0.0 0.00 0.02 0.00 77 1015.1
20260831234558 80 173 0.0 0.0 0.00 0.02 0.00 76 1015.0
20260831233048 80 155 0.0 0.0 0.00 0.02 0.00 75 1014.9
20260831231547 80 182 0.0 0.0 0.00 0.02 0.00 77 1014.5
20260831230046 80 181 0.0 0.0 0.00 0.02 0.00 80 1014.2
20260831224549 80 181 0.0 0.0 0.00 0.02 0.00 81 1014.4
20260831223050 81 165 0.0 0.0 0.00 0.02 0.00 80 1014.3
20260831221600 81 162 0.0 0.0 0.00 0.02 0.00 79 1014.2
20260831220045 80 226 0.0 0.0 0.00 0.02 0.00 79 1014.3
20260831214552 80 134 0.0 0.0 0.00 0.02 0.00 80 1014.1
20260831213044 80 147 0.0 0.0 0.00 0.02 0.00 80 1014.1
20260831211548 81 159 0.0 0.0 0.00 0.02 0.00 78 1014.1
20260831210043 80 160 0.0 0.0 0.00 0.02 0.00 79 1014.3
20260831204544 80 143 0.0 8.0 0.00 0.02 0.00 79 1014.1
20260831203049 81 107 0.0 0.0 0.00 0.02 0.00 79 1014.4
20260831201547 81 131 0.0 0.0 0.00 0.02 0.00 79 1014.2
20260831200046 83 61 0.0 0.0 0.00 0.02 0.00 76 1014.2
20260831194541 86 200 0.0 0.0 0.00 0.02 0.00 73 1013.9
20260831193039 87 195 0.0 0.0 0.00 0.02 0.00 71 1013.8
20260831191538 87 170 0.0 3.0 0.00 0.02 0.00 72 1013.6
20260831190053 86 92 0.0 0.0 0.00 0.02 0.00 74 1013.9
20260831184537 86 243 0.0 0.0 0.00 0.02 0.00 75 1014.1
20260831183040 86 155 0.0 0.0 0.00 0.02 0.00 76 1014.4
20260831181536 84 205 0.0 7.0 0.00 0.02 0.00 79 1014.5
20260831180039 86 163 0.0 8.0 0.00 0.02 0.00 75 1014.7
20260831174535 87 217 0.0 6.0 0.00 0.02 0.00 72 1014.8
20260831173034 86 174 0.0 5.0 0.00 0.02 0.00 74 1014.8
20260831171533 87 184 0.0 2.0 0.00 0.02 0.00 71 1014.8
20260831170031 88 250 0.0 2.0 0.00 0.17 0.00 70 1015.0
20260831164529 87 110 0.0 0.0 0.00 0.17 0.00 71 1015.1
20260831163028 87 134 0.0 1.0 0.00 0.17 0.00 70 1015.3
20260831161526 87 157 0.0 6.0 0.00 0.17 0.00 71 1015.4
20260831160025 86 108 0.0 0.0 0.00 0.18 0.00 73 1015.5
20260831154526 86 132 0.0 0.0 0.00 0.18 0.00 73 1015.4
20260831153023 87 221 0.0 0.0 0.00 0.18 0.00 70 1015.2
20260831151527 87 184 0.0 0.0 0.00 0.18 0.00 72 1015.2
20260831150020 86 127 0.0 0.0 0.00 0.25 0.00 73 1015.2
20260831144616 85 158 0.0 0.0 0.00 0.25 0.00 74 1015.0
20260831143014 85 131 0.0 0.0 0.00 0.25 0.00 75 1014.9
20260831141512 84 91 0.0 0.0 0.00 0.25 0.00 79 1015.0
20260831140016 84 120 0.0 3.0 0.00 0.27 0.00 79 1015.0
20260831134510 84 107 0.0 1.0 0.00 0.27 0.00 80 1014.9
20260831133008 84 107 0.0 1.0 0.00 0.27 0.00 79 1014.7
20260831131505 84 191 0.0 0.0 0.00 0.27 0.00 79 1014.6
20260831130010 83 150 0.0 0.0 0.00 0.27 0.00 79 1014.6
20260831124502 83 165 0.0 0.0 0.00 0.27 0.00 80 1014.2
20260831123100 83 128 0.0 6.0 0.00 0.27 0.00 80 1014.0
20260831121556 82 141 0.0 0.0 0.00 0.27 0.00 80 1014.0
20260831120053 81 108 0.0 0.0 0.00 0.33 0.00 79 1013.9
20260831114552 80 134 0.0 0.0 0.00 0.33 0.00 77 1013.9
20260831113049 80 120 0.0 0.0 0.00 0.33 0.00 76 1013.9
20260831111554 79 224 0.0 0.0 0.00 0.33 0.00 75 1013.9
20260831110049 79 228 0.0 0.0 0.00 0.40 0.00 76 1013.6
20260831104548 79 288 0.0 0.0 0.00 0.40 0.00 77 1013.4
20260831103044 79 161 0.0 0.0 0.00 0.40 0.00 78 1013.4
20260831101551 79 193 0.0 2.0 0.00 0.40 0.00 79 1013.2
20260831100044 79 165 0.0 10.0 0.00 0.40 0.00 78 1013.0
20260831094546 79 160 0.0 10.0 0.00 0.40 0.00 77 1013.0
20260831093042 79 141 0.0 7.0 0.00 0.40 0.00 75 1013.0
20260831091555 79 121 0.0 6.0 0.00 0.40 0.00 73 1012.9
20260831090040 79 139 0.0 0.0 0.00 0.40 0.00 68 1012.8
20260831084540 79 162 0.0 0.0 0.00 0.40 0.00 70 1012.7
20260831083039 79 182 0.0 0.0 0.00 0.40 0.00 72 1012.8
20260831081540 79 146 0.0 0.0 0.00 0.40 0.00 73 1012.6
20260831080057 79 148 0.0 0.0 0.00 0.40 0.00 73 1012.8
20260831074532 78 120 0.0 0.0 0.00 0.40 0.00 71 1013.0
20260831073056 78 115 0.0 0.0 0.00 0.40 0.00 69 1013.1
20260831071529 78 122 0.0 0.0 0.00 0.40 0.00 66 1013.2
20260831070029 78 103 0.0 0.0 0.00 0.40 0.00 61 1013.2
20260831064524 78 140 0.0 0.0 0.00 0.40 0.00 44 1013.2